THOR ABLESTAR DEB, 5265

Orbit data source: Space-Track

THOR ABLESTAR DEB, 5265 is space debris in LEO originally from a launch on Fri, 13 Aug 1965 UTC launched from the Air Force Western Test Range (AFWTR). Debris objects in space refer to the collection of defunct objects orbiting the Earth. Examples of debris include non-operational satellites, rocket bodies, and fragments generated from explosions, collisions, or faulty payload assembly.

Loading next visibility...
Identifier
5265, 1965-065Q
Orbit
LEO
Country
Flag of USUS
Related business
Manufacturer
Unknown
Mission
Spacecraft
Bus & Motor
Unknown
Mass
Unknown
Launch date (UTC)
1965-08-13 (61 years ago)
Launch vehicle
Unknown
Launch site
Air Force Western Test Range (AFWTR)
Object type
Payload
Rocket body
Debris
Shape & HBR
Unknown shape, 0.1 m
Radar Cross Section
Medium (>0.1 m² and <1 m²)

Expand to show TLE details & history
Last TLE update: 13 hours ago

TLE from 13 hours ago
0 THOR ABLESTAR DEB
1 05265U 65065Q   26165.85653310  .00000136  00000-0  22422-3 0  9996
2 05265  90.1320 305.7306 0040961   3.2162 126.0387 13.42507704972304
Epoch: 2026-06-14T20:33Z
TLE epoch observation values (Epoch: 2026-06-14T20:33:24.459Z)
Latitude
50.45964°
Longitude
-85.6135°
Altitude
1,126.185 km
Speed
7.285 km/s
True Right ascension
08h 23m 33s
True Declination
50° 17' 56"
Sunlit
Object was in daylight at epoch
Visualization orbit readout
Latitude
Unknown
Longitude
Unknown
Altitude
Unknown
Speed
Unknown
Apparent Right ascension
Unknown
Apparent Declination
Unknown
Sunlit
N/A
Visualization observer readout
Local Sidereal Time
20:31:58
Azimuth
Unknown
Elevation
Unknown
Doppler factor
Unknown
Orbital elements
Apogee altitude
1,127.632 km
Perigee altitude
1,066.394 km
Semi-major axis
7,475.15 km
Eccentricity
0.0041
Inclination
90.132°
RAAN
305.7306°
Arg. of periapsis
3.2162°
True anomaly
126.41711°
Mean anomaly
126.0387°
Eccentric anomaly
126.22802°
Mean motion
3.35825 °/min
Orbital period
107.2 mins
BSTAR
0.00022422
Loading maneuver chart data...
Computing Atmospheric mass density...
Loading historical data...
Loading historical data...
Loading historical data...
Loading historical data...
Loading historical data...
Loading historical data...
Loading historical data...

Documentation

Showing up to 5 results
|